Weather History for Jefferson, NC

Change the Weather History Date:

Tuesday, February 25, 2014

  Actual Average Record
Temperature  
Mean Temperature 36 °F -  
Max Temperature 41 °F 47 °F 64 °F (1976)
Min Temperature 30 °F 27 °F -6 °F (1967)
Degree Days  
Heating Degree Days 30    
Moisture  
Dew Point 12 °F    
Average Humidity 37    
Maximum Humidity 48    
Minimum Humidity 28    
Precipitation  
Precipitation 0.00 in - - ()
Sea Level Pressure  
Sea Level Pressure 29.95 in    
Wind  
Wind Speed 6 mph (West)    
Max Wind Speed 23 mph    
Max Gust Speed 30 mph    
Visibility 10 miles    
Events      
Averages and records for this station are not official NWS values.
T = Trace of Precipitation, MM = Missing Value Source: NWS Daily Summary

Daily Weather History Graph

Daily Weather History Graph

Search for Another Location

Airport:

Trip Planner

Search our weather history database for the weather conditions in past years. The results will help you decide how hot, cold, wet, or windy it might be!

Date:

Astronomy

Feb. 25, 2014 Rise Set
Actual Time 7:01 AM EST 6:16 PM EST
Civil Twilight 6:35 AM EST 6:42 PM EST
Nautical Twilight 6:05 AM EST 7:12 PM EST
Astronomical Twilight 5:35 AM EST 7:42 PM EST
Moon 3:50 AM EST (2/25) 2:25 PM EST (2/25)
Length of Visible Light 12h 07m
Length of Day
11h 15m
Waning Crescent, 18% of the Moon is Illuminated
Feb 25
Waning Crescent
Mar 1
New
Mar 8
First Quarter
Mar 16
Full
Mar 23
Last Quarter

Hourly Weather History & Observations

Time (EST) Temp. Windchill Dew Point Humidity Pressure Visibility Wind Dir Wind Speed Gust Speed Precip Events Conditions
12:15 AM 34.3 °F 28.4 °F 6.6 °F 31% 30.02 in 10.0 mi West 6.9 mph - N/A   Clear
12:35 AM 32.9 °F - 6.6 °F 33% 30.02 in 10.0 mi Calm Calm - N/A   Clear
12:55 AM 32.0 °F - 7.0 °F 35% 30.01 in 10.0 mi Calm Calm - N/A   Clear
1:15 AM 32.7 °F 29.6 °F 5.9 °F 32% 30.02 in 10.0 mi SE 3.5 mph - N/A   Clear
1:35 AM 30.0 °F - 9.1 °F 42% 30.02 in 10.0 mi Calm Calm - N/A   Scattered Clouds
1:55 AM 31.1 °F - 7.7 °F 37% 30.01 in 10.0 mi Calm Calm - N/A   Mostly Cloudy
2:15 AM 32.0 °F - 7.7 °F 36% 30.00 in 10.0 mi Calm Calm - N/A   Overcast
2:35 AM 31.8 °F - 9.1 °F 39% 30.00 in 10.0 mi Calm Calm - N/A   Overcast
2:55 AM 33.3 °F - 7.0 °F 33% 29.99 in 10.0 mi Calm Calm - N/A   Overcast
3:15 AM 31.3 °F - 9.7 °F 41% 29.99 in 10.0 mi Calm Calm - N/A   Overcast
3:35 AM 30.7 °F - 10.4 °F 43% 29.99 in 10.0 mi Calm Calm - N/A   Overcast
3:55 AM 32.5 °F - 9.5 °F 38% 29.99 in 10.0 mi Calm Calm - N/A   Overcast
4:15 AM 33.8 °F - 10.0 °F 37% 29.99 in 10.0 mi Calm Calm - N/A   Overcast
4:35 AM 31.8 °F 28.5 °F 12.7 °F 45% 29.98 in 10.0 mi South 3.5 mph - N/A   Overcast
4:55 AM 30.6 °F - 12.2 °F 47% 29.97 in 10.0 mi Calm Calm - N/A   Overcast
5:15 AM 31.8 °F 28.5 °F 12.0 °F 44% 29.96 in 10.0 mi South 3.5 mph - N/A   Overcast
5:35 AM 33.1 °F - 12.7 °F 43% 29.97 in 10.0 mi Calm Calm - N/A   Overcast
5:55 AM 34.2 °F - 13.5 °F 43% 29.98 in 10.0 mi Calm Calm - N/A   Overcast
6:15 AM 33.3 °F - 15.3 °F 48% 29.97 in 10.0 mi Calm Calm - N/A   Overcast
6:35 AM 33.8 °F - 13.8 °F 44% 29.97 in 10.0 mi Calm Calm - N/A   Overcast
6:55 AM 34.2 °F - 13.5 °F 43% 29.98 in 10.0 mi Calm Calm - N/A   Overcast
7:15 AM 34.5 °F - 12.9 °F 41% 29.98 in 10.0 mi Calm Calm - N/A   Overcast
7:35 AM 34.5 °F - 13.5 °F 42% 29.98 in 10.0 mi Calm Calm - N/A   Overcast
7:55 AM 34.3 °F - 15.8 °F 47% 29.98 in 10.0 mi Calm Calm - N/A   Overcast
8:15 AM 34.5 °F - 15.6 °F 46% 29.98 in 10.0 mi Calm Calm - N/A   Overcast
8:35 AM 34.9 °F - 14.5 °F 43% 29.98 in 10.0 mi Calm Calm - N/A   Overcast
8:55 AM 35.8 °F - 15.1 °F 43% 29.98 in 10.0 mi Calm Calm - N/A   Overcast
9:15 AM 38.3 °F - 16.7 °F 42% 29.97 in 10.0 mi Calm Calm - N/A   Overcast
9:35 AM 41.5 °F 33.8 °F 16.2 °F 36% 29.97 in 10.0 mi West 15.0 mph 21.9 mph N/A   Overcast
9:55 AM 40.3 °F 33.0 °F 12.6 °F 32% 29.98 in 10.0 mi West 12.7 mph 19.6 mph N/A   Overcast
10:15 AM 39.2 °F 30.8 °F 10.4 °F 31% 29.98 in 10.0 mi WNW 15.0 mph 24.2 mph N/A   Overcast
10:35 AM 38.8 °F 31.6 °F 9.7 °F 30% 29.98 in 10.0 mi West 11.5 mph 23.0 mph N/A   Overcast
10:55 AM 38.3 °F 29.7 °F 8.6 °F 29% 29.98 in 10.0 mi WNW 15.0 mph 29.9 mph N/A   Overcast
11:15 AM 38.5 °F 29.2 °F 8.6 °F 29% 29.97 in 10.0 mi WNW 17.3 mph 24.2 mph N/A   Overcast
11:35 AM 37.9 °F 28.2 °F 8.1 °F 29% 29.98 in 10.0 mi West 18.4 mph 27.6 mph N/A   Overcast
11:55 AM 38.1 °F 31.7 °F 7.9 °F 29% 29.97 in 10.0 mi NW 9.2 mph 25.3 mph N/A   Overcast
12:15 PM 38.5 °F 29.6 °F 7.5 °F 28% 29.97 in 10.0 mi WNW 16.1 mph 25.3 mph N/A   Overcast
12:35 PM 38.7 °F 32.4 °F 8.1 °F 28% 29.96 in 10.0 mi West 9.2 mph 20.7 mph N/A   Overcast
12:55 PM 38.8 °F 30.8 °F 8.4 °F 28% 29.95 in 10.0 mi WNW 13.8 mph 21.9 mph N/A   Overcast
1:15 PM 39.6 °F 31.0 °F 9.3 °F 29% 29.95 in 10.0 mi WNW 16.1 mph 26.5 mph N/A   Overcast
1:35 PM 40.3 °F 33.4 °F 10.6 °F 30% 29.94 in 10.0 mi West 11.5 mph 24.2 mph N/A   Overcast
1:55 PM 39.9 °F 31.8 °F 11.1 °F 31% 29.93 in 10.0 mi NW 15.0 mph 23.0 mph N/A   Mostly Cloudy
2:15 PM 39.2 °F 32.0 °F 10.6 °F 31% 29.93 in 10.0 mi NW 11.5 mph - N/A   Clear
2:35 PM 38.7 °F 29.8 °F 10.8 °F 32% 29.93 in 10.0 mi West 16.1 mph 24.2 mph N/A   Clear
2:55 PM 38.7 °F 30.5 °F 10.4 °F 31% 29.93 in 10.0 mi NW 13.8 mph 20.7 mph N/A   Clear
3:15 PM 38.3 °F 32.5 °F 10.2 °F 31% 29.93 in 10.0 mi WNW 8.1 mph 24.2 mph N/A   Clear
3:35 PM 38.5 °F 30.3 °F 11.7 °F 33% 29.92 in 10.0 mi West 13.8 mph 20.7 mph N/A   Clear
3:55 PM 38.7 °F 29.5 °F 12.2 °F 34% 29.92 in 10.0 mi West 17.3 mph 25.3 mph N/A   Clear
4:15 PM 38.3 °F 29.0 °F 12.4 °F 35% 29.91 in 10.0 mi WNW 17.3 mph 26.5 mph N/A   Clear
4:35 PM 38.1 °F 29.1 °F 12.7 °F 35% 29.91 in 10.0 mi WNW 16.1 mph 24.2 mph N/A   Clear
4:55 PM 38.1 °F 30.7 °F 12.7 °F 35% 29.91 in 10.0 mi West 11.5 mph 17.3 mph N/A   Clear
5:15 PM 38.7 °F 32.9 °F 13.1 °F 35% 29.90 in 10.0 mi West 8.1 mph - N/A   Clear
5:35 PM 38.3 °F 32.5 °F 13.1 °F 36% 29.91 in 10.0 mi WNW 8.1 mph - N/A   Clear
5:55 PM 37.8 °F 30.2 °F 13.5 °F 37% 29.91 in 10.0 mi West 11.5 mph - N/A   Clear
6:15 PM 36.7 °F 29.4 °F 13.8 °F 39% 29.91 in 10.0 mi WSW 10.4 mph - N/A   Clear
6:35 PM 36.5 °F 29.7 °F 14.0 °F 40% 29.91 in 10.0 mi West 9.2 mph - N/A   Clear
6:55 PM 35.8 °F 27.8 °F 14.5 °F 42% 29.91 in 10.0 mi West 11.5 mph 16.1 mph N/A   Clear
7:15 PM 36.0 °F 26.3 °F 14.2 °F 41% 29.91 in 10.0 mi West 16.1 mph 21.9 mph N/A   Clear
7:35 PM 36.1 °F 26.5 °F 14.5 °F 41% 29.91 in 10.0 mi WNW 16.1 mph - N/A   Clear
7:55 PM 36.5 °F 27.4 °F 14.2 °F 40% 29.93 in 10.0 mi WNW 15.0 mph - N/A   Clear
8:15 PM 35.8 °F 27.3 °F 13.8 °F 41% 29.93 in 10.0 mi WNW 12.7 mph 23.0 mph N/A   Clear
8:35 PM 35.6 °F 27.1 °F 13.8 °F 41% 29.93 in 10.0 mi West 12.7 mph 25.3 mph N/A   Clear
8:55 PM 35.6 °F 28.6 °F 13.5 °F 40% 29.93 in 10.0 mi West 9.2 mph 17.3 mph N/A   Clear
9:15 PM 36.0 °F 29.6 °F 13.1 °F 39% 29.93 in 10.0 mi West 8.1 mph 16.1 mph N/A   Scattered Clouds
9:35 PM 35.8 °F 26.9 °F 13.1 °F 39% 29.92 in 10.0 mi WNW 13.8 mph - N/A   Scattered Clouds
9:55 PM 35.8 °F 25.7 °F 12.4 °F 38% 29.91 in 10.0 mi West 17.3 mph 24.2 mph N/A   Mostly Cloudy
10:15 PM 36.3 °F 24.9 °F 11.7 °F 36% 29.90 in 10.0 mi West 23.0 mph 26.5 mph N/A   Scattered Clouds
10:35 PM 35.1 °F 23.3 °F 12.0 °F 39% 29.90 in 10.0 mi WNW 23.0 mph 29.9 mph N/A   Clear
10:55 PM 34.5 °F 24.5 °F 12.0 °F 39% 29.89 in 10.0 mi WNW 16.1 mph - N/A   Clear
11:15 PM 34.3 °F 23.9 °F 12.0 °F 40% 29.89 in 10.0 mi WNW 17.3 mph - N/A   Clear
11:35 PM 34.3 °F 25.5 °F 11.8 °F 39% 29.88 in 10.0 mi WNW 12.7 mph - N/A   Clear
11:55 PM 34.9 °F 25.7 °F 11.3 °F 38% 29.88 in 10.0 mi West 13.8 mph 18.4 mph N/A   Clear